Back to catalog

ONEWEB-0267

AliveCommunicationsPO
NORAD 48985·PAYLOAD·🇬🇧 United Kingdom

Launched Jul 1, 2021 from Vostochny Cosmodrome

Loading…

Next Passes (next 24 hours)

TLE

FreshSource: CelesTrak SupGP

Epoch: Sep 14, 2026, 07:21 UTC

1 48985C 21060U   26257.30678657  .00001831  00000+0  47952-2 0  2575
2 48985  87.9149 211.0769 0002195  76.4512  25.9654 13.16590929    19

Track ONEWEB-0267 in real time with AllMySat

Download on the App Store